Monroe, LA

4:45 PM CST on February 12, 2016 (GMT -0600)
Monroe Regional

Weather History for KMLU - June, 2013

Change the Weather History Date:

Thursday, June 13, 2013

  Actual Average Record
Temperature  
Mean Temperature 85 °F 80 °F  
Max Temperature 95 °F 91 °F 101 °F (1963)
Min Temperature 75 °F 69 °F 54 °F (1985)
Degree Days  
Heating Degree Days 0 0  
Month to date heating degree days 0 0  
Since 1 June heating degree days 0 0  
Since 1 July heating degree days 2205 2230  
Cooling Degree Days 20 15  
Month to date cooling degree days 183 184  
Year to date cooling degree days 533 619  
Since 1 June cooling degree days 183 184  
Growing Degree Days 34 (Base 50)    
Moisture  
Dew Point 75 °F    
Average Humidity 73    
Maximum Humidity 94    
Minimum Humidity 52    
Precipitation  
Precipitation 0.00 in 0.16 in 1.17 in (1972)
Month to date precipitation 3.08 1.94  
Year to date precipitation 28.09 25.99  
Snow  
Snow 0.00 in - - ()
Month to date snowfall 0.0  
Since 1 June snowfall 0.0  
Since 1 July snowfall 0.3  
Snow Depth 0.00 in    
Sea Level Pressure  
Sea Level Pressure 29.98 in    
Wind  
Wind Speed 6 mph (West)    
Max Wind Speed 16 mph    
Max Gust Speed 21 mph    
Visibility 9 miles    
Events      
T = Trace of Precipitation, MM = Missing Value Source: NWS Daily Summary

Daily Weather History Graph

Daily Weather History Graph

Search for Another Location

Airport or City:

Trip Planner

Search our weather history database for the weather conditions in past years. The results will help you decide how hot, cold, wet, or windy it might be!

Date:

Astronomy

Jun. 13, 2013 Rise Set
Actual Time 6:00 AM CDT 8:16 PM CDT
Civil Twilight 5:31 AM CDT 8:44 PM CDT
Nautical Twilight 4:57 AM CDT 9:19 PM CDT
Astronomical Twilight 4:19 AM CDT 9:57 PM CDT
Moon 10:24 AM CDT (6/13) 11:37 PM CDT (6/13)
Length of Visible Light 15h 13m
Length of Day
14h 16m
Waxing Crescent, 22% of the Moon is Illuminated
Jun 13
Waxing Crescent
Jun 16
First Quarter
Jun 23
Full
Jun 29
Last Quarter
Jul 8
New

Hourly Weather History & Observations

Time (CDT) Temp. Heat Index Dew Point Humidity Pressure Visibility Wind Dir Wind Speed Gust Speed Precip Events Conditions
12:53 AM 79.0 °F - 73.9 °F 84% 30.00 in 9.0 mi SSW 4.6 mph - N/A   Clear
1:53 AM 78.1 °F - 73.9 °F 87% 30.00 in 9.0 mi South 3.5 mph - N/A   Clear
2:53 AM 77.0 °F - 73.0 °F 88% 30.00 in 9.0 mi SSW 3.5 mph - N/A   Clear
3:53 AM 77.0 °F - 73.0 °F 88% 30.00 in 8.0 mi SSW 5.8 mph - N/A   Clear
4:53 AM 75.0 °F - 73.0 °F 94% 30.01 in 7.0 mi SSW 5.8 mph - N/A   Clear
5:53 AM 77.0 °F - 73.9 °F 90% 30.02 in 7.0 mi SW 8.1 mph - N/A   Clear
6:53 AM 78.1 °F - 75.0 °F 90% 30.03 in 5.0 mi West 6.9 mph - N/A   Clear
7:53 AM 81.0 °F 86.7 °F 75.0 °F 82% 30.04 in 7.0 mi West 10.4 mph - N/A   Clear
8:53 AM 84.0 °F 91.9 °F 75.0 °F 74% 30.05 in 9.0 mi West 10.4 mph - N/A   Clear
9:53 AM 87.1 °F 96.3 °F 75.0 °F 67% 30.05 in 6.0 mi West 11.5 mph - N/A   Haze
10:53 AM 89.1 °F 99.1 °F 75.0 °F 63% 30.03 in 9.0 mi WSW 16.1 mph 19.6 mph N/A   Partly Cloudy
11:53 AM 90.0 °F 100.2 °F 75.0 °F 61% 30.02 in 10.0 mi West 8.1 mph - N/A   Mostly Cloudy
12:53 PM 91.9 °F 103.2 °F 75.0 °F 58% 30.01 in 10.0 mi WNW 10.4 mph - N/A   Mostly Cloudy
1:53 PM 91.0 °F 100.4 °F 73.9 °F 57% 29.99 in 10.0 mi West 8.1 mph - N/A   Mostly Cloudy
2:53 PM 91.0 °F 99.3 °F 73.0 °F 55% 29.97 in 10.0 mi NW 6.9 mph - N/A   Mostly Cloudy
3:53 PM 93.0 °F 103.2 °F 73.9 °F 54% 29.94 in 10.0 mi NW 6.9 mph - N/A   Mostly Cloudy
4:53 PM 93.9 °F 105.4 °F 75.0 °F 54% 29.92 in 10.0 mi NW 6.9 mph - N/A   Partly Cloudy
5:53 PM 93.9 °F 104.0 °F 73.9 °F 52% 29.91 in 10.0 mi WNW 6.9 mph - N/A   Clear
6:53 PM 91.9 °F 103.2 °F 75.0 °F 58% 29.89 in 10.0 mi WNW 5.8 mph - N/A   Clear
7:53 PM 89.1 °F 98.0 °F 73.9 °F 61% 29.89 in 10.0 mi WNW 4.6 mph - N/A   Clear
8:53 PM 84.0 °F 92.6 °F 75.9 °F 76% 29.89 in 10.0 mi Calm Calm - N/A   Clear
9:53 PM 84.0 °F 92.6 °F 75.9 °F 76% 29.91 in 10.0 mi Calm Calm - N/A   Clear
10:53 PM 82.0 °F 90.2 °F 77.0 °F 85% 29.92 in 10.0 mi Calm Calm - N/A   Clear
11:53 PM 80.1 °F 85.8 °F 77.0 °F 90% 29.91 in 8.0 mi Calm Calm - N/A   Clear